Weather in Ketsky

Russia / Krasnoyarsk Krai     57°34′54″N   91°52′40″E
temp.,
°C
wind,
m/s
gust,
m/s
humid.,
%
clouds,
%
prec.,
mm/h
press.,
hPa
HPBL,
m
1 july, fri
fri101:00+12wsw227178 0.0 100322
04:00+12nnw1165100 0.0 100310
07:00+15ese1264100 0.0 1003128
10:00+18ssw2358100 0.0 1002462
13:00+20sw3545100 0.0 10021790
16:00+22sw4545100 0.0 10022085
19:00+19s366441 0.0 1001214
22:00+14wnw2273100 0.0 100237
2 july, sat
sat201:00+11sw228293 0.0 100337
04:00+13ssw2472100 0.0 100387
07:00+14sw3774100 0.0 1003343
10:00+17sw695977 0.1 10021466
13:00+17wsw686089 0.3 10031338
16:00+15wsw488576 1.1 10031073
19:00+15wsw377723 1.5 1003767
22:00+12s36885 0.1 1003116
3 july, sun
sun301:00+11ssw411935 0.1 1004452
04:00+11sw4109499 0.0 1004556
07:00+12sw4984100 0.0 1004784
10:00+14sw4775100 0.0 10051000
13:00+16wsw466491 0.1 10051305
16:00+17wsw466672 0.2 10051014
19:00+17wsw367631 0.5 1006633
22:00+12sw239323 0.3 100755
4 july, mon
mon401:00+11sw25965 0.3 100893
04:00+9wsw23987 0.0 100865
07:00+13sw239011 0.0 1009204
10:00+16sw238354 1.2 1008472
13:00+20wsw345511 2.0 10081550
16:00+21wnw355365 0.8 10071699
19:00+18nw23819 1.4 1007228
22:00+13wsw11895 0.3 100711
5 july, tue
tue501:00+11ssw119122 0.3 100710
04:00+10se11925 0.0 100610
07:00+14ese128942 0.0 1005133
10:00+19e2364100 0.0 1004771
13:00+24e244571 0.1 10022112
16:00+22nne2359100 0.0 1001577
19:00+21ene486386 0.0 1000437
22:00+16ene3879100 0.0 1000131